Location: *
(50.8512°N, 5.6907°E)
Time: 23:45:16
(UTC+00:00)

Cosmos 540 Rocket - Pass Details

Date: 09 April 2020
Orbit: 741 x 753 km, 74.1° (Epoch: 22 May)

Event Time Altitude Azimuth Distance (km) Brightness Sun altitude
Rises 21:26:11 0° 332° (NNW) 3,215 8.1 -24.6°
Reaches altitude 10° 21:28:35 10° 329° (NNW) 2,284 7.0 -24.8°
Maximum altitude 21:33:38 56° 252° (WSW) 892 3.8 -25.2°
Enters shadow 21:34:18 52° 222° (SW) 932 3.8 -25.3°
